Location: ?
(35.4996°N, 139.3166°E)
Time: 04:46:50
(UTC+00:00)

Cosmos 2219 Rocket - Pass Details

Date: 18 April 2024
Orbit: 828 x 845 km, 71.0° (Epoch: 20 May)

Event Time Altitude Azimuth Distance (km) Brightness Sun altitude
Exits shadow 16:18:41 19° 344° (NNW) 1,903 4.3 -38.0°
Drops below altitude 10° 16:20:34 10° 358° (N) 2,436 5.1 -37.8°
Sets 16:23:21 0° 10° (N) 3,373 6.2 -37.5°
